This is the latest recevied weather packets stored in our database for station/object WI0K. If no packets are shown the sender has not sent any weather packets the latest 10 day(s).
| Time | Temp. | Humidity | Pressure | Rain* | Wind** | Luminosity | Snow |
|---|---|---|---|---|---|---|---|
| 1788419427 | 18.33° C | 63% | 1017.8 hPa | 0 mm | - | 0 W/m² | - |
| 1788419127 | 17.78° C | 64% | 1017.8 hPa | 0 mm | - | 0 W/m² | - |
| 1788418826 | 17.78° C | 67% | 1017.9 hPa | 0 mm | - | 0 W/m² | - |
| 1788418525 | 17.78° C | 66% | 1018.1 hPa | 0 mm | - | 0 W/m² | - |
| 1788418225 | 17.78° C | 66% | 1018.1 hPa | 0 mm | - | 0 W/m² | - |
| 1788417923 | 17.78° C | 67% | 1018.1 hPa | 0 mm | - | 0 W/m² | - |
| 1788417622 | 17.78° C | 67% | 1018.1 hPa | 0 mm | - | 0 W/m² | - |
| 1788417322 | 17.78° C | 67% | 1018.1 hPa | 0 mm | - | 0 W/m² | - |
| 1788417021 | 17.78° C | 67% | 1018.1 hPa | 0 mm | - | 0 W/m² | - |
| 1788416720 | 18.33° C | 66% | 1018.1 hPa | 0 mm | - | 0 W/m² | - |
| 1788416420 | 18.33° C | 66% | 1018.1 hPa | 0 mm | - | 0 W/m² | - |
| 1788416119 | 18.33° C | 65% | 1018.1 hPa | 0 mm | - | 0 W/m² | - |
| 1788415818 | 18.89° C | 63% | 1018.1 hPa | 0 mm | - | 0 W/m² | - |
| 1788415518 | 18.89° C | 63% | 1017.9 hPa | 0 mm | - | 0 W/m² | - |
| 1788415217 | 18.89° C | 60% | 1017.8 hPa | 0 mm | - | 0 W/m² | - |
| 1788414916 | 18.89° C | 61% | 1017.8 hPa | 0 mm | - | 0 W/m² | - |
| 1788414615 | 18.89° C | 61% | 1017.7 hPa | 0 mm | - | 0 W/m² | - |
| 1788414315 | 19.44° C | 60% | 1017.7 hPa | 0 mm | - | 0 W/m² | - |
| 1788414014 | 19.44° C | 60% | 1017.7 hPa | 0 mm | - | 0 W/m² | - |
| 1788413713 | 19.44° C | 61% | 1017.8 hPa | 0 mm | - | 0 W/m² | - |
| 1788413413 | 19.44° C | 60% | 1017.9 hPa | 0 mm | - | 0 W/m² | - |
| 1788413112 | 18.89° C | 61% | 1018.1 hPa | 0 mm | - | 0 W/m² | - |
| 1788412811 | 18.89° C | 61% | 1018.1 hPa | 0 mm | - | 0 W/m² | - |
| 1788412510 | 18.89° C | 61% | 1018.2 hPa | 0 mm | - | 0 W/m² | - |
| 1788412210 | 18.89° C | 63% | 1018.2 hPa | 0 mm | - | 0 W/m² | - |
* Rain latest hour (hover to see other rain measurements)
** Current wind speed in m/s (hover to see current wind gust speed)